sat.trackr.live / text

‹ back to catalog

STARLINK-36537

NORAD 67516 · 2026-012Z

PAYLOAD ACTIVE UNKNOWN

§ Identity

Operator
Country
US
Launch date
2026-01-18
Launch site
AFETR
Launch vehicle
Mass (kg)
RCS (m²)

Purposes: comms

External: N2YO · Heavens-Above · Gunter

§ Orbital elements

Epoch: 2026-09-19T19:45:29.154240Z

Period
94.27 min
Inclination
43.0037°
Eccentricity
0.0001571
Mean motion
15.27578298 rev/d
Perigee alt
482.0 km
Apogee alt
484.1 km
Semi-major
6,861.2 km
B*
2.7914e-4
RAAN
297.8952°
Arg perigee
274.2465°
Mean anomaly
85.8208°
Rev number
3,745

§ Raw data

STARLINK-365371 67516U 26012Z   26262.82325410  .00007427  00000+0  27914-3 0  99942 67516  43.0037 297.8952 0001571 274.2465  85.8208 15.27578298 37454

JSON: /api/v1/satellites/67516 · /tle

For live sub-satellite position, see the globe view (requires WebGL).

§ Visibility from observer

Set your observer location to see the next 7 days of passes ≥ 10°. The values pass through the URL so the page stays shareable.

No JS? Fill the form by hand. The geolocation button needs JavaScript.